User: anonymous   Login
Location: Oshawa
(43.9000°N, 78.8670°W)
Time: 20:11:39
(UTC-04:00)
Language:

Thor Agena Rocket - Orbit

View from above orbital plane
View from above orbital plane
View from above satellite
View from above satellite

Ground track
Ground track

The orbit data is extracted from the following two-line orbital elements,

1 00733U 64002A   15148.00894642  .00000127  00000-0  64846-4 0  9999
2 00733 099.0481 286.2240 0033732 199.4296 160.5602 14.32099249674783
Epoch (UTC): 28 May 2015 00:12:52
Eccentricity: 0.0033732
inclination: 99.0481°
perigee height: 760 km
apogee height: 809 km
right ascension of ascending node: 286.2240°
argument of perigee: 199.4296°
revolutions per day: 14.32099249
mean anomaly at epoch: 160.5602°
orbit number at epoch: 67478

The dashed part of the orbit path shows where the satellite is in the earth's shadow,  

DLR